Temp_Advection
nan nan nan nan nan nan nan nan nan nan nan nan nan nan nan nan nan nan nan nan nan nan nan nan nan nan nan nan nan nan nan nan nan nan nan nan nan nan nan nan nan nan nan
nan 0 0 0 0 0 0 0 0 0 0 0 0 0 0 -0 -0 -0 -0 -0 -0 -0 -0 -0 -0 -0 -0 -0 -0 0 -0 -0 -0 0 0 0 0 0 -0 -0 -0 -0 nan
nan 0 0 0 0 0 0 0 0 0 0 0 0 0 0 -0 -0 0 -0 -0 -0 -0 -0 -0 -0 -0 -0 -0 -0 -0 -0 -0 -0 -0 -0 0 0 0 0 0 -0 -0 nan
nan 0 1 0 0 0 0 0 0 0 0 0 0 0 0 -0 -0 -0 0 0 -0 -0 -0 -0 -0 -0 -0 -0 -0 -0 -0 -0 -0 -0 -0 -0 0 -0 -0 0 0 0 nan
nan 0 1 1 1 0 0 0 0 0 0 0 0 0 0 0 0 0 0 -0 -0 -0 0 0 -0 -0 -0 -0 -0 -0 -0 -0 -0 -0 -0 -0 -0 0 0 -1 -0 0 nan
nan 0 0 0 0 0 0 0 0 0 0 0 0 0 0 0 0 -0 -0 -0 0 0 0 0 -0 -0 -0 -0 -0 -0 -0 -0 -0 -0 -0 0 0 0 0 -0 -0 -0 nan
nan 0 0 0 0 0 0 0 0 0 0 0 0 0 0 0 0 -0 -0 -0 -0 0 0 0 0 0 0 -0 -0 -0 -0 -0 -0 -0 0 0 0 -0 0 0 0 0 nan
nan 0 0 0 0 0 0 0 0 0 0 0 0 0 0 0 -0 -0 0 0 0 -0 -0 0 0 0 -0 0 -0 -0 -0 -0 0 0 0 0 0 0 0 -0 -0 -0 nan
nan 0 0 -0 0 0 0 0 0 0 0 0 0 0 0 0 0 0 -0 -0 0 0 0 0 0 0 0 0 -0 -0 -0 -0 0 0 0 0 0 0 0 0 0 0 nan
nan -0 -0 -0 -0 0 0 0 -0 -0 0 -0 -0 0 0 0 0 0 -0 0 0 0 0 0 0 0 0 0 0 0 0 0 0 0 0 0 0 0 0 0 0 0 nan
nan -0 -0 -0 -0 -0 0 0 0 0 -0 0 -0 -0 -0 0 0 0 0 0 0 -0 0 0 0 0 0 0 0 -0 -0 -0 0 -0 0 0 0 0 0 0 1 1 nan
nan -0 -0 -0 -0 -0 -0 -0 -0 0 0 0 0 0 0 0 -0 -0 0 0 0 0 -0 -0 0 0 0 0 0 0 0 0 0 0 -0 0 0 0 1 0 1 1 nan
nan -0 -0 -0 -0 -0 -0 -0 -0 -0 0 0 0 0 0 0 0 0 0 0 0 0 0 0 -0 -0 0 0 0 0 0 0 0 0 0 0 0 0 1 0 0 1 nan
nan -0 -0 -0 -0 -0 -0 -0 -0 -0 -0 -0 -0 0 0 0 0 0 0 0 0 0 0 0 0 0 -0 0 0 0 0 0 0 0 0 0 0 0 1 0 0 0 nan
nan -0 -0 -0 -0 -0 -0 -0 -0 -0 -0 -0 -0 -0 -0 0 0 0 0 1 1 1 0 0 0 0 0 -0 -0 0 0 0 0 0 0 0 1 0 0 0 0 1 nan
nan -0 -0 -0 -0 -0 -0 -0 -0 -0 -0 -0 -0 -0 -0 -0 0 -0 0 0 0 1 1 1 0 0 0 0 0 0 0 0 0 0 1 1 0 0 1 0 -0 0 nan
nan 0 -0 -0 -0 -0 -0 -0 -0 -0 -0 -0 -0 0 -0 0 0 0 0 0 0 0 1 1 1 0 0 0 0 0 0 -0 0 0 1 1 1 0 -0 1 1 1 nan
nan -0 -0 -0 0 0 0 0 -0 0 0 0 0 0 0 0 0 0 0 0 0 0 0 1 1 1 1 1 0 0 0 0 -0 0 1 1 -0 0 0 0 0 0 nan
nan 0 0 -0 0 0 0 0 0 0 -0 -0 -0 -0 -0 -0 -0 -0 0 0 0 0 0 0 1 1 1 1 1 1 1 1 0 0 1 1 1 0 1 0 -0 -0 nan
nan 0 0 0 0 -0 -0 -0 -0 -0 -0 -0 -0 -0 -0 -0 -0 -0 -0 -0 -0 -0 0 0 1 1 1 1 1 1 0 0 0 1 1 0 0 0 1 1 0 -1 nan
nan 0 0 0 -0 -0 -0 -0 -0 -0 -0 -0 -0 -0 -0 -0 -0 -1 -0 -0 -0 -0 0 -0 0 1 1 1 1 1 0 0 1 0 1 1 1 0 -0 1 0 1 nan
nan 0 -0 -0 -0 -0 -0 -0 -0 -0 -0 -0 -0 -0 -0 -0 -0 -1 -1 -0 -0 -1 -0 -0 -0 0 1 1 1 1 1 1 0 0 1 1 0 0 0 1 1 1 nan
nan -0 -0 0 0 0 0 -0 -0 -0 -1 -1 -1 -0 -0 -0 -0 -0 -1 -1 -0 -0 -0 -0 -0 0 1 1 1 1 2 1 -0 0 1 1 0 -0 0 1 1 1 nan
nan -0 -0 -0 0 0 0 0 -0 -0 -1 -1 -1 -1 -1 -1 -0 -0 -0 -0 -1 -1 -0 -1 -1 -0 -0 1 1 1 1 1 1 1 1 1 0 -0 0 0 1 1 nan
nan -0 -0 -1 -0 -0 -0 0 0 -0 -1 -1 -1 -1 -1 -1 -1 -1 -1 -1 -0 0 -0 -1 -1 -1 -1 1 1 0 1 1 1 1 1 1 1 1 -0 -1 0 1 nan
nan nan nan nan nan nan nan nan nan nan nan nan nan nan nan nan nan nan nan nan nan nan nan nan nan nan nan nan nan nan nan nan nan nan nan nan nan nan nan nan nan nan nan
Wind_Speed
16 17 17 14 14 14 13 13 12 11 9 10 13 12 10 10 11 7 4 5 6 6 5 6 7 8 7 8 8 8 8 7 6 4 4 4 4 4 6 7 8 9 11
21 19 17 16 13 11 12 13 14 12 9 11 12 10 9 10 7 5 4 5 5 4 5 7 7 7 9 9 8 7 8 9 7 5 1 3 5 3 6 8 10 13 15
23 21 22 19 15 12 11 13 12 10 10 12 12 8 8 8 7 4 4 3 4 4 5 6 8 9 9 9 8 7 7 8 8 7 3 2 2 9 6 8 11 13 18
17 21 25 21 16 12 13 13 10 10 11 12 10 9 8 8 6 5 4 4 5 6 7 8 9 9 9 9 9 8 7 7 7 7 6 5 6 3 4 6 8 13 18
7 12 20 17 16 15 14 12 10 11 12 12 10 10 9 8 8 7 7 7 8 9 9 10 10 10 10 10 10 9 9 8 8 6 6 7 8 8 8 15 13 17 13
6 8 11 14 16 16 13 11 11 11 12 11 10 10 10 9 9 9 9 9 10 10 10 11 11 11 12 11 11 11 11 10 10 10 8 7 7 9 10 16 21 21 12
5 6 6 7 8 10 10 10 11 10 11 11 11 11 11 12 11 11 11 12 12 11 11 12 12 12 12 12 12 12 12 12 11 11 11 11 11 11 11 13 16 19 19
4 4 3 4 5 7 8 10 11 11 12 12 12 12 13 14 14 13 14 14 15 14 14 14 14 14 14 14 14 14 14 14 14 14 13 12 13 13 13 13 14 16 13
2 1 0 2 5 7 9 11 13 14 15 15 14 14 15 16 16 15 17 17 16 16 16 16 16 16 16 16 16 16 16 16 16 16 15 15 14 14 14 14 15 14 11
2 1 2 4 7 8 8 9 10 12 13 14 15 16 16 17 17 18 19 18 18 19 19 19 19 19 18 18 18 17 17 18 17 18 18 17 17 17 16 16 15 16 16
2 3 4 7 10 10 9 10 11 11 11 12 14 16 16 16 18 20 20 21 21 22 23 23 23 22 21 21 21 20 19 20 19 19 20 20 18 19 18 18 17 17 17
4 2 6 9 9 9 9 9 9 11 11 12 15 16 15 16 18 20 21 22 23 24 25 26 27 27 25 24 24 23 22 22 22 21 21 22 21 21 20 20 20 20 19
2 2 6 9 10 10 10 10 9 10 11 13 14 15 15 16 18 19 20 20 22 24 26 28 30 30 29 28 27 27 26 25 24 23 23 23 23 23 22 22 22 22 21
2 2 6 9 13 11 10 10 9 10 11 12 14 15 16 18 20 21 23 24 24 25 26 27 28 30 31 31 31 30 30 28 27 26 25 25 25 25 23 23 23 23 24
2 5 10 14 15 12 11 11 12 13 14 14 15 17 19 21 23 25 26 26 26 26 27 28 28 29 30 32 33 33 32 31 30 28 27 26 26 26 26 25 24 24 25
4 9 13 15 12 12 12 12 12 13 15 17 18 19 20 21 22 23 24 25 26 26 26 27 28 29 30 30 31 32 33 33 33 31 30 27 26 28 27 26 26 25 25
7 12 11 10 10 10 11 12 14 15 16 17 17 18 19 20 21 22 24 25 25 25 26 26 27 28 28 27 28 30 33 34 34 33 31 29 29 27 29 28 26 26 26
8 7 8 8 9 10 11 12 12 12 12 13 14 15 17 18 19 20 22 23 24 25 26 26 27 27 28 26 26 27 32 35 34 33 31 35 32 28 28 30 29 28 27
5 6 8 9 9 9 9 10 11 12 13 14 16 18 20 21 21 20 20 20 21 22 23 24 25 27 26 24 24 25 30 34 35 35 36 36 32 32 26 30 31 29 27
3 3 4 5 6 7 9 11 13 15 17 18 20 20 21 23 22 22 22 22 22 22 23 23 23 23 25 22 22 24 29 32 34 34 34 32 36 29 26 29 30 30 27
2 2 3 3 6 9 13 15 18 20 22 24 24 24 24 25 26 25 24 24 23 23 22 23 22 22 22 20 21 22 27 29 30 33 31 31 30 23 28 27 29 29 25
3 1 2 5 9 13 17 20 22 24 26 27 27 27 27 27 27 28 26 26 27 26 25 25 24 22 21 21 21 20 24 26 29 29 28 31 24 24 28 27 28 27 22
0 4 6 9 11 16 21 24 26 28 30 31 32 32 31 30 29 30 30 30 29 30 30 28 26 24 21 21 22 21 22 25 30 29 28 28 23 24 27 27 25 22 24
3 7 11 14 17 19 22 27 30 31 31 32 33 33 34 34 32 33 33 33 33 34 34 33 32 30 27 24 21 21 22 24 26 26 29 29 24 27 25 24 25 26 28
8 11 15 18 20 22 24 28 31 32 33 35 36 37 37 37 36 34 34 35 35 34 36 37 36 35 34 28 23 22 22 22 22 22 28 29 31 31 28 29 28 28 26
12 16 18 21 23 26 29 32 33 33 35 38 38 37 37 37 38 38 40 34 35 35 36 36 35 38 37 33 28 25 23 22 21 24 29 33 33 31 29 30 28 28 25
Wind_Direction
232 237 242 251 258 261 269 277 285 291 295 308 310 305 300 298 306 310 330 325 322 323 332 335 338 341 346 348 350 351 354 7 48 114 123 112 69 26 341 335 337 332 334
229 228 235 243 253 266 277 282 285 287 294 305 306 298 290 295 298 306 318 317 321 326 326 322 328 335 335 338 342 351 356 358 15 30 207 237 246 302 305 316 331 339 341
234 232 232 237 246 263 284 291 286 284 293 304 305 291 287 292 303 302 319 315 299 303 309 314 322 324 324 328 335 342 342 343 352 2 10 302 265 315 263 289 310 326 332
239 239 233 234 246 266 276 290 289 288 298 303 297 284 278 287 299 302 292 283 290 298 303 308 312 314 317 322 326 330 334 338 338 336 338 319 300 303 294 280 300 311 325
226 233 230 240 250 256 274 285 288 293 298 300 293 281 277 278 280 284 278 280 285 295 303 307 310 311 313 317 319 322 324 323 323 327 324 315 311 303 297 304 306 311 334
199 209 218 232 243 251 265 280 286 293 297 298 289 277 272 268 271 276 276 280 285 291 297 302 306 309 311 312 312 311 311 311 313 316 313 302 294 294 295 300 311 320 338
222 235 235 232 236 257 272 279 286 295 297 299 292 279 270 266 268 271 274 279 283 290 293 295 300 302 301 302 304 304 303 303 304 305 303 302 299 293 289 292 303 311 324
195 209 222 240 258 270 279 285 291 295 297 302 298 282 270 267 268 271 273 278 281 285 289 293 295 296 298 299 300 300 299 297 296 294 293 294 295 295 295 294 295 302 303
180 166 208 325 315 310 310 304 300 299 299 302 303 293 279 270 270 271 271 276 277 281 282 285 287 288 290 292 293 294 294 293 292 292 293 293 294 293 291 292 292 292 297
117 67 356 333 319 306 302 304 314 321 311 303 306 299 287 274 271 269 271 276 276 276 278 280 281 281 283 285 286 287 289 290 292 294 294 294 294 292 290 290 287 285 283
152 90 35 355 342 331 310 290 293 311 325 323 313 306 299 285 277 273 275 279 282 280 279 279 279 278 279 281 282 285 287 290 292 292 292 291 290 289 287 287 286 283 278
132 60 7 358 357 353 340 333 304 288 304 311 307 308 309 300 291 291 292 290 288 286 283 279 277 276 275 276 278 280 282 285 288 290 288 289 288 286 285 284 283 281 278
146 16 355 1 357 350 349 348 335 318 302 296 304 306 306 306 306 304 302 297 293 290 288 285 281 279 277 275 275 276 277 279 282 285 287 289 285 286 286 285 285 284 282
178 342 335 343 342 333 333 332 327 327 323 312 305 303 302 300 297 296 295 294 294 290 288 285 284 282 280 276 274 274 275 276 278 281 282 284 284 285 283 283 284 284 282
214 319 330 330 329 320 312 310 314 316 314 309 305 300 296 294 293 292 291 289 286 287 288 287 284 283 280 276 273 273 274 275 274 275 279 283 284 283 283 282 282 280 280
306 321 320 324 326 326 324 322 317 314 311 309 308 307 305 302 301 298 295 292 290 287 283 282 284 284 282 280 278 276 274 276 275 276 278 278 280 282 280 279 283 282 280
314 314 321 331 334 338 336 331 322 318 317 316 316 314 311 307 304 301 299 298 296 293 289 285 283 284 285 283 282 280 277 275 274 275 275 276 275 279 279 276 272 270 271
320 325 331 336 338 335 332 332 332 340 345 347 345 339 331 326 321 314 308 303 300 297 295 291 286 282 281 280 279 280 278 276 274 273 274 271 275 269 273 275 272 272 272
332 336 335 341 351 5 15 11 7 0 354 347 343 341 337 334 331 328 324 318 310 305 300 295 291 287 284 278 275 277 276 275 272 270 267 272 270 275 266 271 272 273 272
301 342 10 30 27 18 5 353 345 339 337 335 334 332 330 327 325 324 323 320 314 311 305 302 297 291 286 280 272 271 271 269 269 272 273 271 274 272 268 266 270 270 273
127 92 76 33 359 346 341 338 335 329 327 323 323 322 321 320 320 317 316 314 310 308 309 306 304 299 294 289 278 271 268 269 271 273 273 277 279 267 269 267 266 269 278
130 76 2 348 345 340 336 334 333 329 324 320 319 317 315 312 311 310 310 308 307 305 307 306 305 305 301 295 287 277 269 272 271 277 279 280 272 269 267 264 260 259 265
341 330 335 336 340 338 336 332 330 326 321 317 313 311 309 308 307 306 304 302 300 299 298 299 297 300 299 294 290 286 276 268 273 276 279 279 269 268 268 262 259 259 260
329 329 331 333 334 333 330 328 327 324 319 316 314 314 313 310 306 303 303 301 299 296 294 292 292 293 291 291 292 285 278 273 268 271 278 281 275 272 270 264 260 260 265
330 333 332 326 323 324 322 321 323 324 320 317 316 315 314 313 311 308 306 303 298 298 296 292 289 288 286 287 285 281 279 275 272 270 274 270 267 263 265 264 265 268 272
331 326 322 318 317 319 319 321 325 322 319 317 318 318 316 313 310 310 308 304 303 302 298 296 290 285 282 282 283 282 280 279 270 263 270 278 273 261 263 264 265 275 272
Height
1536 1538 1540 1542 1542 1542 1543 1543 1542 1541 1540 1539 1537 1535 1534 1533 1531 1530 1530 1529 1529 1528 1527 1527 1526 1524 1523 1522 1521 1519 1518 1516 1515 1513 1512 1511 1511 1509 1508 1506 1505 1504 1502
1533 1535 1537 1538 1539 1541 1540 1540 1540 1539 1538 1537 1535 1533 1532 1531 1530 1529 1529 1528 1528 1528 1527 1526 1525 1523 1523 1521 1520 1518 1517 1515 1514 1513 1511 1511 1511 1509 1507 1505 1504 1502 1501
1529 1532 1534 1535 1537 1538 1538 1538 1538 1537 1536 1535 1533 1531 1531 1530 1530 1529 1528 1528 1528 1527 1526 1525 1524 1522 1521 1520 1519 1518 1516 1515 1513 1512 1512 1509 1508 1507 1505 1503 1503 1502 1500
1526 1528 1530 1532 1534 1535 1536 1536 1535 1534 1534 1532 1531 1529 1529 1529 1528 1528 1528 1527 1527 1526 1525 1524 1522 1521 1520 1518 1517 1516 1515 1514 1512 1510 1509 1508 1507 1506 1504 1503 1502 1501 1499
1524 1525 1527 1530 1532 1533 1533 1533 1532 1532 1531 1530 1529 1528 1528 1527 1527 1527 1527 1526 1526 1525 1524 1522 1521 1520 1518 1517 1516 1514 1513 1512 1511 1510 1508 1506 1504 1503 1502 1498 1499 1499 1497
1523 1525 1526 1528 1529 1530 1530 1530 1529 1529 1528 1527 1526 1526 1526 1526 1525 1525 1525 1525 1524 1523 1522 1521 1519 1518 1517 1516 1514 1513 1511 1510 1508 1507 1506 1505 1503 1501 1500 1497 1494 1493 1493
1523 1524 1525 1525 1527 1527 1527 1527 1526 1526 1525 1524 1524 1523 1523 1523 1523 1523 1523 1522 1521 1520 1519 1518 1517 1516 1514 1513 1512 1511 1509 1508 1506 1504 1503 1501 1500 1499 1497 1495 1493 1490 1489
1523 1524 1524 1525 1525 1525 1524 1524 1523 1523 1523 1522 1521 1520 1520 1520 1520 1520 1520 1519 1518 1518 1517 1516 1515 1513 1512 1511 1509 1508 1506 1505 1503 1502 1500 1498 1496 1495 1494 1493 1491 1488 1486
1523 1523 1524 1523 1523 1522 1522 1521 1520 1520 1519 1518 1517 1517 1516 1516 1516 1516 1516 1515 1514 1514 1513 1512 1511 1510 1509 1507 1506 1505 1503 1502 1500 1498 1496 1495 1493 1492 1491 1490 1489 1488 1485
1522 1522 1522 1521 1520 1518 1518 1518 1517 1517 1516 1514 1514 1513 1512 1512 1512 1511 1511 1510 1509 1508 1508 1507 1507 1506 1505 1504 1503 1502 1500 1498 1497 1495 1493 1491 1490 1488 1486 1485 1485 1484 1484
1521 1521 1520 1519 1517 1515 1514 1514 1513 1513 1513 1512 1511 1510 1508 1507 1507 1506 1506 1505 1505 1505 1504 1503 1503 1502 1502 1501 1499 1498 1497 1495 1493 1492 1490 1488 1486 1484 1483 1481 1480 1479 1478
1520 1519 1518 1516 1515 1513 1511 1510 1509 1509 1510 1509 1508 1506 1505 1504 1503 1502 1502 1501 1500 1500 1499 1498 1497 1496 1496 1495 1494 1493 1491 1490 1489 1488 1486 1484 1482 1480 1479 1477 1475 1474 1472
1518 1518 1516 1514 1513 1511 1509 1507 1507 1506 1506 1505 1504 1503 1501 1500 1498 1497 1496 1495 1494 1493 1492 1491 1490 1490 1489 1488 1487 1486 1485 1483 1482 1481 1480 1479 1477 1475 1475 1473 1472 1470 1468
1515 1514 1513 1512 1511 1509 1507 1506 1505 1504 1503 1501 1500 1498 1497 1495 1493 1491 1489 1488 1487 1486 1484 1483 1482 1481 1480 1480 1479 1478 1478 1477 1476 1475 1473 1472 1471 1469 1468 1467 1466 1465 1463
1513 1511 1510 1509 1508 1506 1505 1504 1502 1501 1499 1498 1496 1494 1491 1489 1487 1485 1483 1481 1479 1478 1477 1475 1474 1472 1471 1470 1470 1470 1470 1470 1469 1467 1466 1465 1465 1464 1463 1460 1460 1459 1456
1510 1509 1509 1507 1505 1503 1501 1500 1498 1497 1496 1494 1492 1489 1487 1484 1482 1480 1477 1475 1473 1471 1469 1467 1466 1465 1464 1462 1462 1462 1462 1463 1463 1461 1460 1459 1458 1456 1456 1453 1451 1451 1449
1508 1507 1506 1505 1503 1501 1499 1497 1496 1495 1493 1490 1487 1485 1482 1479 1477 1474 1471 1469 1466 1464 1462 1460 1458 1457 1456 1456 1455 1455 1453 1453 1452 1452 1452 1451 1450 1450 1449 1447 1445 1443 1443
1506 1505 1504 1502 1501 1499 1497 1496 1494 1492 1489 1487 1484 1480 1477 1474 1471 1468 1465 1462 1459 1456 1454 1452 1450 1447 1446 1447 1446 1445 1444 1444 1442 1442 1444 1442 1442 1441 1440 1439 1437 1436 1435
1503 1502 1501 1500 1499 1498 1497 1495 1493 1490 1487 1485 1482 1478 1474 1471 1467 1464 1460 1457 1453 1449 1446 1443 1440 1438 1437 1437 1437 1436 1433 1433 1433 1434 1433 1432 1432 1433 1432 1430 1429 1428 1427
1501 1500 1500 1500 1499 1497 1495 1493 1491 1488 1486 1483 1479 1475 1471 1467 1463 1459 1456 1452 1448 1444 1441 1437 1433 1431 1428 1427 1425 1428 1425 1422 1425 1424 1425 1425 1424 1424 1424 1423 1421 1419 1420
1499 1499 1498 1497 1496 1495 1493 1491 1489 1486 1482 1479 1475 1472 1468 1464 1459 1455 1451 1447 1443 1440 1435 1433 1430 1425 1423 1420 1419 1418 1417 1415 1415 1414 1414 1417 1417 1415 1415 1415 1413 1412 1414
1498 1498 1497 1497 1496 1494 1491 1488 1485 1482 1478 1474 1470 1467 1463 1458 1454 1449 1446 1442 1437 1433 1429 1425 1423 1421 1418 1414 1412 1409 1409 1408 1406 1405 1406 1408 1407 1407 1407 1407 1407 1407 1408
1496 1495 1495 1494 1493 1491 1489 1485 1481 1477 1473 1468 1464 1460 1456 1452 1448 1442 1438 1434 1431 1426 1422 1419 1415 1413 1412 1408 1405 1402 1402 1401 1397 1398 1399 1399 1399 1399 1398 1399 1399 1400 1400
1494 1493 1492 1491 1489 1487 1484 1480 1476 1472 1467 1462 1457 1452 1447 1443 1439 1435 1431 1426 1422 1419 1415 1412 1408 1405 1404 1402 1400 1396 1394 1393 1391 1390 1390 1390 1391 1391 1390 1391 1392 1392 1391
1492 1491 1489 1487 1485 1483 1480 1476 1471 1466 1460 1455 1450 1445 1439 1435 1430 1426 1422 1418 1414 1411 1405 1403 1400 1397 1395 1394 1392 1389 1386 1385 1384 1384 1383 1383 1383 1383 1383 1383 1384 1384 1383
1489 1488 1486 1484 1482 1478 1474 1470 1465 1459 1452 1445 1440 1436 1430 1425 1421 1416 1410 1411 1405 1400 1397 1393 1390 1387 1385 1385 1383 1381 1378 1377 1376 1375 1373 1373 1372 1373 1374 1374 1376 1375 1375